Henderson, NV

1:21 PM PDT on June 25, 2017 (GMT -0700)
Henderson

Weather History for KHND - September, 2012

Change the Weather History Date:

Thursday, September 13, 2012

  Actual Average (KLAS) Record (KLAS)
Temperature  
Mean Temperature 78 °F -  
Max Temperature 93 °F 94 °F 109 °F (1948)
Min Temperature 63 °F 67 °F 52 °F (1952)
Cooling Degree Days 13    
Growing Degree Days 28 (Base 50)    
Moisture  
Dew Point 41 °F    
Average Humidity 34    
Maximum Humidity 73    
Minimum Humidity 10    
Precipitation  
Precipitation 0.00 in - - ()
Sea Level Pressure  
Sea Level Pressure 30.04 in    
Wind  
Wind Speed 2 mph (NE)    
Max Wind Speed 15 mph    
Max Gust Speed -    
Visibility 10 miles    
Events      
Averages and records for this station are not official NWS values.
T = Trace of Precipitation, MM = Missing Value Source: NWS Daily Summary

Daily Weather History Graph

Daily Weather History Graph

Search for Another Location

Airport or City:

Trip Planner

Search our weather history database for the weather conditions in past years. The results will help you decide how hot, cold, wet, or windy it might be!

Date:

Astronomy

Sep. 13, 2012 Rise Set
Actual Time 6:21 AM PDT 6:49 PM PDT
Civil Twilight 5:56 AM PDT 7:15 PM PDT
Nautical Twilight 5:25 AM PDT 7:45 PM PDT
Astronomical Twilight 4:55 AM PDT 8:16 PM PDT
Moon 3:49 AM PDT (9/13) 5:12 PM PDT (9/13)
Length of Visible Light 13h 19m
Length of Day
12h 27m
Waning Crescent, 7% of the Moon is Illuminated
Sep 13
Waning Crescent
Sep 15
New
Sep 22
First Quarter
Sep 29
Full
Oct 8
Last Quarter

Hourly Weather History & Observations

Time (PDT) Temp. Dew Point Humidity Pressure Visibility Wind Dir Wind Speed Gust Speed Precip Events Conditions
12:56 AM 68.9 °F 59.0 °F 71% 29.99 in - Calm Calm - N/A   Clear
1:56 AM 68.0 °F 56.8 °F 67% 30.00 in - Calm Calm - N/A   Clear
2:56 AM 65.8 °F 56.8 °F 73% 30.01 in - Calm Calm - N/A   Clear
3:56 AM 64.9 °F 54.0 °F 68% 30.01 in - Calm Calm - N/A   Clear
4:56 AM 63.9 °F 52.0 °F 65% 30.03 in - Calm Calm - N/A   Clear
5:56 AM 63.9 °F 45.9 °F 52% 30.04 in 10.0 mi Calm Calm - N/A   Clear
6:56 AM 63.9 °F 46.9 °F 54% 30.07 in 10.0 mi Calm Calm - N/A   Clear
7:56 AM 70.0 °F 46.9 °F 44% 30.09 in 10.0 mi Calm Calm - N/A   Clear
8:56 AM 79.9 °F 36.9 °F 21% 30.10 in 10.0 mi Calm Calm - N/A   Clear
9:56 AM 81.9 °F 32.0 °F 16% 30.11 in 10.0 mi Calm Calm - N/A   Clear
10:56 AM 83.8 °F 32.0 °F 15% 30.11 in 10.0 mi Calm Calm - N/A   Clear
11:56 AM 88.9 °F 25.2 °F 10% 30.09 in 10.0 mi NNE 12.7 mph - N/A   Clear
12:56 PM 90.9 °F 28.0 °F 11% 30.06 in 10.0 mi NE 12.7 mph - N/A   Clear
1:56 PM 91.9 °F 27.1 °F 10% 30.03 in 10.0 mi North 15.0 mph - N/A   Clear
2:56 PM 92.8 °F 30.0 °F 11% 30.01 in - NE 5.8 mph - N/A   Clear
3:56 PM 93.9 °F 29.1 °F 10% 29.99 in - NE 11.5 mph - N/A   Clear
4:56 PM 93.2 °F 28.4 °F 10% 30.12 in - NE 9.2 mph - N/A   Clear
5:56 PM 91.9 °F 32.0 °F 12% 29.99 in - NE 6.9 mph - N/A   Clear
6:56 PM 86.0 °F 36.0 °F 17% 30.00 in - Calm Calm - N/A   Clear
7:56 PM 81.9 °F 41.0 °F 23% 30.01 in - Calm Calm - N/A   Clear
8:56 PM 75.9 °F 47.8 °F 37% 30.02 in - Calm Calm - N/A   Clear
9:56 PM 74.8 °F 45.9 °F 36% 30.02 in - Calm Calm - N/A   Clear
10:56 PM 72.0 °F 45.9 °F 39% 30.02 in - Calm Calm - N/A   Clear
11:56 PM 70.9 °F 45.9 °F 41% 30.02 in - South 6.9 mph - N/A   Clear